📊 Raw Sensor Data
Showing records 42351 to 42375 of 84,999 total
| ID | Distance (ft) | Battery V | Battery A | Int Temp (°F) | Int Humid (%) | Ext Temp (°F) | Solar V | RSSI | SNR | Time Stamp |
|---|---|---|---|---|---|---|---|---|---|---|
| 42661 | 15.5 | 4.01 | 0 | 86 | 50 | 79 | 5.10 | -70 | 8 | 06/05/2025 06:30 PM |
| 42660 | 15.5 | 4.04 | 0 | 87 | 49 | 80 | 5.10 | -68 | 8 | 06/05/2025 06:15 PM |
| 42659 | 15.5 | 4.01 | 0 | 88 | 49 | 79 | 5.10 | -70 | 8 | 06/05/2025 06:00 PM |
| 42658 | 15.5 | 4.01 | 0 | 89 | 48 | 79 | 5.10 | -75 | 7 | 06/05/2025 05:45 PM |
| 42657 | 15.5 | 4.01 | 0 | 89 | 48 | 80 | 5.10 | -70 | 7 | 06/05/2025 05:30 PM |
| 42656 | 15.5 | 4.02 | 0 | 90 | 47 | 80 | 5.10 | -70 | 8 | 06/05/2025 05:15 PM |
| 42655 | 15.5 | 4.12 | 0 | 91 | 47 | 81 | 5.10 | -69 | 8 | 06/05/2025 05:00 PM |
| 42654 | 15.5 | 4.01 | 0 | 92 | 45 | 85 | 5.10 | -70 | 8 | 06/05/2025 04:30 PM |
| 42653 | 15.5 | 4.01 | 0 | 92 | 44 | 82 | 5.10 | -69 | 8 | 06/05/2025 04:15 PM |
| 42652 | 15.5 | 4.01 | 0 | 92 | 44 | 84 | 5.10 | -69 | 8 | 06/05/2025 04:00 PM |
| 42651 | 15.5 | 4.01 | 0 | 91 | 44 | 83 | 5.10 | -70 | 8 | 06/05/2025 03:45 PM |
| 42650 | 15.5 | 4.01 | 0 | 91 | 43 | 83 | 5.10 | -75 | 8 | 06/05/2025 03:30 PM |
| 42649 | 15.5 | 4.01 | 0 | 91 | 42 | 84 | 5.10 | -74 | 7 | 06/05/2025 03:15 PM |
| 42648 | 15.5 | 4.12 | 0 | 89 | 43 | 82 | 5.10 | -75 | 7 | 06/05/2025 03:00 PM |
| 42647 | 15.5 | 4.02 | 0 | 89 | 42 | 83 | 5.10 | -74 | 7 | 06/05/2025 02:45 PM |
| 42646 | 15.5 | 4.01 | 0 | 88 | 42 | 81 | 5.10 | -73 | 6 | 06/05/2025 02:30 PM |
| 42645 | 15.5 | 4.01 | 0 | 87 | 42 | 82 | 5.10 | -75 | 7 | 06/05/2025 02:00 PM |
| 42644 | 15.5 | 4.01 | 0 | 85 | 42 | 79 | 5.10 | -74 | 7 | 06/05/2025 01:45 PM |
| 42643 | 15.5 | 4.01 | 0 | 85 | 42 | 81 | 5.10 | -75 | 8 | 06/05/2025 01:30 PM |
| 42642 | 15.5 | 4.02 | 0 | 84 | 43 | 79 | 5.10 | -72 | 7 | 06/05/2025 01:15 PM |
| 42641 | 15.5 | 4.14 | 0 | 84 | 42 | 79 | 5.10 | -75 | 8 | 06/05/2025 01:00 PM |
| 42640 | 15.6 | 4.01 | 0 | 83 | 42 | 78 | 5.10 | -77 | 8 | 06/05/2025 12:45 PM |
| 42639 | 15.5 | 4.10 | 0 | 81 | 43 | 77 | 5.10 | -75 | 7 | 06/05/2025 12:30 PM |
| 42638 | 15.5 | 4.01 | 0 | 80 | 43 | 78 | 5.10 | -76 | 8 | 06/05/2025 12:15 PM |
| 42637 | 15.5 | 4.01 | 0 | 79 | 43 | 79 | 5.10 | -75 | 7 | 06/05/2025 12:00 PM |